Uitslag 5 & 10 Kilometer dames en heren 11-06-2017

Uitslag 5 & 10 Kilometer dames en heren 11-06-2017
5 Kilometer heren
Plaats Naam Tijd km/hr min/km
1 Marco Otten 0:17:15 17,40 00:03:27
2 Mark van Lieverloo 0:19:30 15,39 00:03:54
3 Chris Romme 0:19:56 15,05 00:03:59
4 Berry Simons 0:20:46 14,45 00:04:09
5 Stijn Bogers 0:21:04 14,25 00:04:13
6 Jos van Rijswijk 0:22:01 13,63 00:04:24
7 Johan Vissers 0:22:14 13,50 00:04:27
8 Mats Verhulst 0:23:10 12,95 00:04:38
9 Ton Vis 0:23:49 12,60 00:04:46
10 Henk van den Broek 0:24:08 12,43 00:04:50
11 Jack Vissers 0:25:07 11,95 00:05:01
12 Ron Bakker 0:25:33 11,74 00:05:07
13 Peter van Lint 0:25:42 11,68 00:05:08
14 Wilric van Rijckevorsel 0:25:45 11,65 00:05:09
15 John Lammerse 0:25:57 11,56 00:05:11
16 Michel Bego 0:27:22 10,96 00:05:28
17 Kas de Wit 0:27:57 10,74 00:05:35
18 Siem Jansen 0:28:11 10,65 00:05:38
19 Joep Jansen 0:28:14 10,63 00:05:39
20 Stefan Carton 0:28:30 10,53 00:05:42
21 Mees de Wit 0:29:09 10,29 00:05:50
22 Cas Keetels 0:29:28 10,18 00:05:54
23 Geert Keetels 0:29:29 10,18 00:05:54
24 Ruben Koks 0:29:58 10,01 00:06:00
25 Patrick Koks 0:29:59 10,01 00:06:00
26 Koos Geerts 0:30:53 9,72 00:06:11
27 Lucien van Tilborg 0:32:15 9,30 00:06:27
28 Bert van Arendonk 0:32:36 9,20 00:06:31
29 Gijs de Wit 0:32:51 9,13 00:06:34
5 Kilometer dames
Plaats Naam Tijd km/hr min/km
1 Anouk Kerstens 0:22:08 13,56 00:04:26
2 Francesca Thijssen 0:24:26 12,28 00:04:53
3 Lilly Van Est 0:25:38 11,71 00:05:08
4 Tony Kleemans 0:25:48 11,63 00:05:10
5 Maartje de Bakker 0:26:03 11,52 00:05:13
6 Elske van Dongen 0:26:23 11,37 00:05:17
7 Karien Musters 0:26:33 11,30 00:05:19
8 Dinie Megens 0:26:54 11,16 00:05:23
9 Brigita Driessen 0:28:05 10,69 00:05:37
10 Els van Exsel 0:28:17 10,61 00:05:39
11 Hester Stratenus 0:28:23 10,57 00:05:41
12 Carolien Kuiper 0:28:27 10,55 00:05:41
13 Helene Driessen 0:28:34 10,50 00:05:43
14 Kirsten Schugard 0:28:38 10,48 00:05:44
15 Lieke Sweep 0:30:12 9,94 00:06:02
16 Elly van Helmond 0:30:33 9,82 00:06:07
17 Arianne de Raaff 0:31:12 9,62 00:06:14
18 Judith Geerts 0:31:18 9,59 00:06:16
19 Corina Bakker 0:31:32 9,52 00:06:18
20 Lenny van Eekelen 0:31:37 9,49 00:06:19
21 Lian Somma 0:32:04 9,36 00:06:25
22 Tonny van Boven 0:33:13 9,03 00:06:39
23 Monica van der Lans 0:33:20 9,00 00:06:40
24 Odilia Kerkhoven 0:33:36 8,93 00:06:43
25 Maartje Spoelstra 0:33:54 8,85 00:06:47
26 Suzan de Wit 0:33:58 8,83 00:06:48
27 Aike Vogels 0:34:47 8,63 00:06:57
28 Maartje Mulders 0:35:03 8,56 00:07:01
29 Moerman Renate 0:37:08 8,08 00:07:26
10 Kilometer heren
Plaats Naam Tijd km/hr min/km
1 Ruben Mureau 00:38:11 15,7 00:03:49
2 Jeroen Hollebrands 00:42:45 14,0 00:04:16
3 Frank Sjaardema 00:43:07 13,9 00:04:19
4 Jan Noordman 00:45:50 13,1 00:04:35
5 Ruben Wiams 00:47:03 12,8 00:04:42
6 Peter Hendrix 00:47:46 12,6 00:04:47
8 Gijs Driesprong 00:50:21 11,9 00:05:02
9 Wouter Claes 00:51:15 11,7 00:05:07
10 Rob van der Zande 00:52:43 11,4 00:05:16
11 Andre van de Velde 00:53:21 11,2 00:05:20
12 Coen van Guldener 00:54:58 10,9 00:05:30
13 Kees Koevoets 00:55:46 10,8 00:05:35
14 Maarten Neijenhuijs 00:56:07 10,7 00:05:37
15 Gerard van de Griendt 00:57:49 10,4 00:05:47
16 Jack Moerman 01:01:00 9,8 00:06:06
17 Niels van Vugt 01:05:00 9,2 00:06:30
18 Rogier van Besauw 01:02:29 9,6 00:06:15
19 Karel van Laere 01:03:03 9,5 00:06:18
10 Kilometer dames
Plaats Naam Tijd km/hr min/km
1 Patricia Kloonen 00:49:03 12,2 00:04:54
2 Mariange Dubios 00:55:19 10,8 00:05:32
3 Hanneke Vis – Bakkum 00:56:52 10,6 00:05:41
4 Liesbeth Bouwens 01:01:44 9,7 00:06:10
5 Marieke van Meerendonk 01:06:18 9 00:06:38